Regional Weather Roundup
Issued by NWS Charleston, SC

Current Version | Previous Version | Graphics & Text | Print | Product List | Glossary On
Versions: 1 2 3 4 5 6 7 8 9 10 11 12 13 14 15 16 17 18 19 20 21 22 23 24 25 26 27 28 29 30 31 32 33 34 35 36 37 38 39 40 41 42 43 44 45 46 47 48 49 50
000
ASUS42 KCHS 172212
RWRCHS

REGIONAL WEATHER ROUNDUP
NATIONAL WEATHER SERVICE CHARLESTON SC
600 PM EDT THU AUG 17 2017

NOTE: "FAIR" INDICATES FEW OR NO CLOUDS BELOW 12,000 FEET WITH NO
SIGNIFICANT WEATHER AND/OR OBSTRUCTIONS TO VISIBILITY.

NOT ALL STATIONS ARE QUALITY CONTROLLED. USE DATA WITH CAUTION...
ESPECIALLY DEWPOINT OBSERVATIONS.

SCZ027-030-031-034>040-042>050-172300-
...SOUTHEAST SOUTH CAROLINA...

CITY           SKY/WX    TMP DP  RH WIND       PRES   REMARKS
N CHARLESTON   PTSUNNY   85  75  72 CALM      29.97R HX  93
WATERFRONT PRK   N/A    N/A N/A N/A CALM      29.82F
JOHNS ISLAND     N/A     88  81  79 SW5       29.97F HX 105
PINOPOLIS        N/A     81  77  89 SE5       29.90F
MONCKS CORNER  FAIR      81  77  89 S6        29.97R
SUMMERVILLE    FAIR      82  77  83 CALM      29.97S THUNDER HX  91
BEAUFORT MCAS  MOSUNNY   92  79  65 S6        29.96F HX 108
BEAUFORT ARPT  FAIR      90  77  66 S8        29.96S HX 102
HILTON HEAD IS MOSUNNY   88  77  70 S12       29.97F HX 100
WALTERBORO     CLOUDY    95  73  49 W6        29.96S HX 105
ALLENDALE      NOT AVBL

...SOUTHERN MIDLANDS AND PEE DEE...

CITY           SKY/WX    TMP DP  RH WIND       PRES   REMARKS
GEORGETOWN     FAIR      79  77  94 CALM      29.99R
KINGSTREE      FAIR      86  79  79 SE6       29.96S HX  99
ORANGEBURG     PTSUNNY   94  74  52 S6        29.95S HX 104
BARNWELL       FAIR      97  75  49 SW7       29.95S HX 109
AIKEN          FAIR      90  73  58 SW7       30.00S HX  98
MANNING        FAIR      90  77  66 CALM      29.96R HX 102
COLUMBIA       MOSUNNY   97  71  42 SW7       29.93S HX 104
SUMTER         MOSUNNY   95  72  47 SW8       29.92F HX 103
FLORENCE       CLOUDY    85  75  72 CALM      29.96S HX  93
MYRTLE BEACH   NOT AVBL
N MYRTLE BEACH LGT RAIN  77  76  96 S6        30.00S

$$

GAZ063-065-086>088-099>101-113>116-118-119-134>141-150-172300-
...SOUTHEAST GEORGIA...

CITY           SKY/WX    TMP DP  RH WIND       PRES   REMARKS
SAVANNAH ARPT  MOSUNNY   93  76  57 S8        29.96F HX 105
HUNTER AAF     SUNNY     91  76  61 S9        29.95S HX 101
FORT STEWART   CLOUDY    87  77  70 SE8       29.95S HX  99
STATESBORO     SUNNY     96  67  39 W7        29.96S HX 100
SYLVANIA       CLEAR     94  78  58 CALM      29.97S HX 110
CLAXTON        MOCLDY    95  75  52 CALM      29.96S HX 107

...CSRA...CENTRAL AND FAR SOUTHEAST GEORGIA...

CITY           SKY/WX    TMP DP  RH WIND       PRES   REMARKS
THOMSON        SUNNY     91  75  59 W9        30.02S HX 101
AUGUSTA-BUSH   SUNNY     96  75  50 W7        29.94S HX 108
AUGUSTA-DANIEL SUNNY     94  71  47 VRB6      29.97S HX 101
SWAINSBORO     FAIR      95  73  49 NW9       29.98S HX 105
VIDALIA        SUNNY     95  73  49 W7        29.98S HX 105
EASTMAN        FAIR      92  65  40 CALM      30.01S HX  93
HAZLEHURST     FAIR      95  57  27 NW5       29.97S HX  94
ALMA           MOSUNNY   95  74  50 VRB3      29.98S HX 105
WAYCROSS       CLOUDY    96  69  41 NW3       29.98R HX 101
JESUP          FAIR      97  72  44 CALM      29.98R HX 105
BAXLEY         FAIR      91  68  46 NW8       29.98R HX  95
BRUNSWICK      CLOUDY    86  73  66 SW6       30.01R HX  93
SAINT SIMONS   PTSUNNY   87  79  76 S7        30.00R HX 101

$$

SCZ027-028-034-036>038-045-046-048>050-GAZ119-141-172300-
...LAKE AND SUPPLEMENTAL COASTAL OBSERVATIONS...

STATION/POSITION TIME  TEMP    WIND        PRES    WAVE   SWELL
                       AIR SEA DIR/SP/G            HT/PER HT/PER/DIR
                 (UTC) (F)     (DEG/KT/KT) (MB)    (FT/S) (FT/S/D)
WINYAH BAY       2045   85     230/ 11     1015.0
LAKE MURRAY      2120   93     200/  7/  8 1012.9
ACE BASIN NERRS  2045   91     160/  1     1014.0
FORT PULASKI     2136   88 86  210/  6/ 10 1015.2F
SAPELO ISLAND    2100   88     200/  3     1015.0

$$

ANZ835-935-AMZ111-154-330-350-352-354-370-450-454-472-172300-
...C-MAN AND BUOY OBSERVATIONS...

STATION/POSITION TIME  TEMP    WIND        PRES    WAVE   SWELL
                       AIR SEA DIR/SP/G            HT/PER HT/PER/DIR
                 (UTC) (F)     (DEG/KT/KT) (MB)    (FT/S) (FT/S/D)
BUOY 41004       2150   85 86  200/  8/ 10 1014.4F   2/ 4   2/220/ 4
BUOY 41008       2050   87 88  160/  8/  8 1015.1    1/ 9
FOLLY BEACH CMAN 2100   87     180/  3/  5 1015.4F
CAPERS NEARSHORE 2108   81 86   10/  4/  8 1014.6F
FRIPP NEARSHORE  2108   88     200/ 10/ 12 1014.4F


STATION/POSITION TIME  TEMP    WIND        PRES    WAVE   SWELL
                       AIR SEA DIR/SP/G            HT/PER HT/PER/DIR
                 (UTC) (F)     (DEG/KT/KT) (MB)    (FT/S) (FT/S/D)
5E ST. MARYS GA  2200      86                N/A     1/10
FRYING PAN BUOY  2150   85 85  190/  8/ 10 1015.0R   2/ 7   2/110/ 7
BUOY 41025       2050   83 87  170/  6/  8 1015.7    2/ 8   2/ 80/ 8
CAPE LOOKOUT NC  2100   84     160/  7/  8 1015.4F
BUOY 41002       2050   85 85  280/  6/  8 1016.1    2/ 4   2/260/ 4
BUOY 41010       2150   86 87  230/  6/  6 1016.3S   2/ 9   2/100/ 9
ST AUGUSTINE FL  2100   85 82   CALM  /  1 1016.9S


$$



USA.gov is the U.S. government's official web portal to all federal, state and local government web resources and services.